Location: Kaseke
(18.0171°S, 31.0526°E)
Time: 11:30:36
(UTC+00:00)

Lacrosse 4 Rocket - Pass Details

Date: 14 July 2020
Orbit: 542 x 616 km, 68.0° (Epoch: 07 August)

Event Time Altitude Azimuth Distance (km) Brightness Sun altitude
Exits shadow 03:05:05 11° 321° (NW) 1,919 3.9 -19.3°
Drops below altitude 10° 03:05:12 10° 322° (NW) 1,947 3.9 -19.3°
Sets 03:08:18 0° 345° (NNW) 2,864 5.0 -18.6°
